QPF
0.02 0.02 0.03 0.03 0.04 0.05 0.06 0.08 0.09 0.10 0.12 0.14 0.17 0.20 0.20 0.17 0.16 0.15 0.12 0.10 0.08 0.06 0.05 0.03 0.03 0.02 0.02 0.02 0.02 0.01 0.01 0.01 0.00 0.01 0.02 0.02 0.02 0.04 0.06 0.08 0.05 0.03 0.02
0.03 0.03 0.03 0.04 0.06 0.07 0.09 0.11 0.12 0.12 0.12 0.16 0.17 0.21 0.20 0.16 0.16 0.14 0.12 0.10 0.07 0.05 0.04 0.03 0.03 0.02 0.02 0.01 0.01 0.01 0.01 0.01 0.01 0.01 0.01 0.02 0.03 0.04 0.04 0.08 0.09 0.07 0.06
0.05 0.06 0.05 0.04 0.05 0.06 0.07 0.11 0.16 0.17 0.21 0.26 0.26 0.27 0.24 0.22 0.19 0.17 0.14 0.12 0.09 0.05 0.04 0.03 0.03 0.02 0.02 0.01 0.01 0.01 0.01 0.01 0.01 0.01 0.01 0.01 0.02 0.02 0.03 0.06 0.09 0.09 0.08
0.11 0.10 0.10 0.09 0.09 0.11 0.13 0.14 0.17 0.20 0.23 0.25 0.25 0.23 0.24 0.23 0.22 0.22 0.18 0.13 0.09 0.08 0.06 0.04 0.03 0.02 0.02 0.02 0.01 0.01 0.01 0.01 0.01 0.01 0.01 0.01 0.02 0.02 0.02 0.04 0.06 0.08 0.11
0.11 0.09 0.08 0.08 0.10 0.12 0.13 0.13 0.14 0.16 0.17 0.19 0.20 0.21 0.21 0.23 0.25 0.22 0.16 0.12 0.08 0.07 0.06 0.05 0.05 0.04 0.03 0.02 0.02 0.01 0.01 0.01 0.01 0.00 0.00 0.01 0.01 0.02 0.02 0.03 0.05 0.08 0.09
0.04 0.04 0.04 0.05 0.05 0.04 0.05 0.05 0.05 0.07 0.10 0.13 0.12 0.12 0.13 0.15 0.15 0.12 0.09 0.08 0.07 0.07 0.06 0.05 0.06 0.06 0.04 0.03 0.02 0.01 0.01 0.01 0.01 0.00 0.01 0.01 0.01 0.01 0.02 0.02 0.04 0.06 0.08
0.00 0.01 0.01 0.02 0.02 0.02 0.02 0.02 0.02 0.03 0.05 0.05 0.05 0.05 0.05 0.07 0.07 0.05 0.03 0.03 0.04 0.05 0.06 0.05 0.06 0.07 0.06 0.05 0.04 0.03 0.02 0.01 0.01 0.01 0.01 0.01 0.01 0.01 0.01 0.02 0.03 0.05 0.08
0.00 0.00 0.00 0.00 0.00 0.01 0.00 0.00 0.00 0.01 0.01 0.01 0.02 0.03 0.03 0.03 0.03 0.02 0.02 0.01 0.01 0.02 0.04 0.05 0.07 0.08 0.07 0.08 0.08 0.07 0.07 0.04 0.04 0.02 0.02 0.02 0.01 0.00 0.00 0.01 0.01 0.02 0.03
0.00 0.00 0.00 0.00 0.00 0.00 0.00 0.00 0.00 0.00 0.00 0.00 0.00 0.01 0.02 0.01 0.01 0.01 0.01 0.01 0.01 0.01 0.03 0.04 0.05 0.05 0.08 0.10 0.07 0.06 0.07 0.05 0.04 0.04 0.04 0.03 0.01 0.01 0.00 0.00 0.00 0.00 0.01
0.00 0.00 0.00 0.00 0.00 0.00 0.00 0.00 0.00 0.00 0.00 0.00 0.00 0.00 0.00 0.00 0.00 0.00 0.00 0.00 0.00 0.01 0.03 0.04 0.04 0.05 0.08 0.08 0.04 0.05 0.06 0.05 0.05 0.05 0.05 0.04 0.02 0.02 0.02 0.01 0.01 0.01 0.01
0.00 0.00 0.00 0.00 0.00 0.00 0.00 0.00 0.00 0.00 0.00 0.00 0.00 0.00 0.00 0.00 0.00 0.00 0.00 0.00 0.01 0.01 0.01 0.02 0.04 0.04 0.04 0.04 0.03 0.04 0.06 0.07 0.07 0.06 0.05 0.03 0.03 0.03 0.03 0.02 0.02 0.02 0.02
0.00 0.00 0.00 0.00 0.00 0.00 0.00 0.00 0.00 0.00 0.00 0.00 0.00 0.00 0.00 0.00 0.00 0.00 0.00 0.00 0.00 0.01 0.01 0.02 0.02 0.03 0.03 0.03 0.03 0.03 0.05 0.05 0.06 0.05 0.03 0.01 0.01 0.01 0.01 0.01 0.01 0.01 0.01
0.00 0.00 0.00 0.00 0.00 0.00 0.00 0.00 0.00 0.00 0.00 0.00 0.00 0.00 0.00 0.00 0.00 0.00 0.01 0.00 0.00 0.00 0.01 0.01 0.03 0.04 0.03 0.03 0.03 0.04 0.04 0.04 0.04 0.03 0.02 0.01 0.00 0.00 0.00 0.00 0.01 0.01 0.02
0.00 0.00 0.00 0.00 0.00 0.00 0.00 0.00 0.00 0.00 0.00 0.00 0.00 0.00 0.00 0.00 0.00 0.00 0.01 0.00 0.00 0.01 0.01 0.02 0.03 0.04 0.05 0.04 0.03 0.04 0.04 0.03 0.03 0.02 0.02 0.01 0.01 0.00 0.00 0.01 0.01 0.01 0.01
0.00 0.00 0.00 0.00 0.00 0.00 0.00 0.00 0.00 0.00 0.00 0.00 0.00 0.00 0.00 0.00 0.00 0.00 0.00 0.00 0.00 0.01 0.02 0.03 0.03 0.03 0.04 0.03 0.03 0.02 0.02 0.02 0.03 0.02 0.02 0.01 0.01 0.01 0.01 0.00 0.01 0.01 0.00
0.00 0.00 0.00 0.00 0.00 0.00 0.00 0.00 0.00 0.00 0.00 0.00 0.00 0.00 0.00 0.00 0.00 0.00 0.00 0.00 0.01 0.02 0.02 0.01 0.02 0.03 0.03 0.02 0.02 0.01 0.01 0.01 0.01 0.02 0.02 0.02 0.01 0.01 0.00 0.00 0.00 0.00 0.00
0.00 0.00 0.00 0.00 0.00 0.00 0.00 0.00 0.00 0.00 0.00 0.00 0.00 0.00 0.00 0.00 0.00 0.00 0.00 0.01 0.01 0.02 0.02 0.01 0.01 0.01 0.01 0.01 0.02 0.02 0.01 0.01 0.01 0.01 0.01 0.00 0.00 0.00 0.00 0.00 0.00 0.00 0.00
0.00 0.00 0.00 0.00 0.00 0.00 0.00 0.00 0.00 0.00 0.00 0.00 0.00 0.00 0.00 0.00 0.00 0.00 0.00 0.00 0.00 0.00 0.00 0.00 0.00 0.00 0.00 0.01 0.01 0.01 0.01 0.00 0.00 0.00 0.00 0.00 0.00 0.00 0.00 0.00 0.00 0.00 0.00
0.00 0.00 0.00 0.00 0.00 0.00 0.00 0.00 0.00 0.00 0.00 0.00 0.00 0.00 0.00 0.00 0.00 0.00 0.00 0.00 0.00 0.00 0.00 0.00 0.00 0.00 0.00 0.00 0.00 0.00 0.00 0.00 0.00 0.00 0.00 0.00 0.00 0.00 0.00 0.00 0.00 0.00 0.00
0.00 0.00 0.00 0.00 0.00 0.00 0.00 0.00 0.00 0.00 0.00 0.00 0.00 0.00 0.00 0.00 0.00 0.00 0.00 0.00 0.00 0.00 0.00 0.00 0.00 0.00 0.00 0.00 0.00 0.00 0.00 0.00 0.00 0.00 0.00 0.00 0.00 0.00 0.00 0.00 0.00 0.00 0.00
0.00 0.00 0.00 0.00 0.00 0.00 0.00 0.00 0.00 0.00 0.00 0.00 0.00 0.00 0.00 0.00 0.00 0.00 0.00 0.00 0.00 0.00 0.00 0.00 0.00 0.00 0.00 0.00 0.00 0.00 0.00 0.00 0.00 0.00 0.00 0.00 0.00 0.00 0.00 0.00 0.00 0.00 0.00
0.00 0.00 0.00 0.00 0.00 0.00 0.00 0.00 0.00 0.00 0.00 0.00 0.00 0.00 0.00 0.00 0.00 0.00 0.00 0.00 0.00 0.00 0.00 0.00 0.00 0.00 0.00 0.00 0.00 0.00 0.00 0.00 0.00 0.00 0.00 0.00 0.00 0.00 0.00 0.00 0.00 0.00 0.00
0.00 0.00 0.00 0.00 0.00 0.00 0.00 0.00 0.00 0.00 0.00 0.00 0.00 0.00 0.00 0.00 0.00 0.00 0.00 0.00 0.00 0.00 0.00 0.00 0.00 0.00 0.00 0.00 0.00 0.00 0.00 0.00 0.00 0.00 0.00 0.00 0.00 0.00 0.00 0.00 0.00 0.00 0.00
0.00 0.00 0.00 0.00 0.00 0.00 0.00 0.00 0.00 0.00 0.00 0.00 0.00 0.00 0.00 0.00 0.00 0.00 0.00 0.00 0.00 0.00 0.00 0.00 0.00 0.00 0.00 0.00 0.00 0.00 0.00 0.00 0.00 0.00 0.00 0.00 0.00 0.00 0.00 0.00 0.00 0.00 0.00
0.00 0.00 0.00 0.00 0.00 0.00 0.00 0.00 0.00 0.00 0.00 0.00 0.00 0.00 0.00 0.00 0.00 0.00 0.00 0.00 0.00 0.00 0.00 0.00 0.00 0.00 0.00 0.00 0.00 0.00 0.00 0.00 0.00 0.00 0.00 0.00 0.00 0.00 0.00 0.00 0.00 0.00 0.00
0.00 0.00 0.00 0.00 0.00 0.00 0.00 0.00 0.00 0.00 0.00 0.00 0.00 0.00 0.00 0.00 0.00 0.00 0.00 0.00 0.00 0.00 0.00 0.00 0.00 0.00 0.00 0.00 0.00 0.00 0.00 0.00 0.00 0.00 0.00 0.00 0.00 0.00 0.00 0.00 0.00 0.00 0.00
MSLP
1014.46 1014.18 1013.99 1013.86 1013.79 1013.76 1013.76 1013.78 1013.82 1013.88 1013.96 1014.05 1014.15 1014.24 1014.31 1014.35 1014.35 1014.32 1014.26 1014.19 1014.13 1014.10 1014.13 1014.22 1014.37 1014.58 1014.82 1015.08 1015.33 1015.54 1015.69 1015.79 1015.84 1015.84 1015.82 1015.79 1015.77 1015.77 1015.79 1015.83 1015.90 1015.99 1016.10
1014.79 1014.54 1014.36 1014.25 1014.18 1014.15 1014.13 1014.13 1014.15 1014.17 1014.21 1014.26 1014.32 1014.37 1014.40 1014.41 1014.39 1014.33 1014.25 1014.15 1014.06 1013.99 1013.97 1014.01 1014.10 1014.26 1014.47 1014.71 1014.96 1015.20 1015.41 1015.58 1015.70 1015.78 1015.83 1015.86 1015.87 1015.87 1015.88 1015.89 1015.91 1015.95 1016.00
1015.19 1014.96 1014.79 1014.67 1014.58 1014.53 1014.49 1014.46 1014.44 1014.43 1014.43 1014.45 1014.46 1014.48 1014.48 1014.47 1014.43 1014.36 1014.26 1014.15 1014.04 1013.95 1013.90 1013.90 1013.96 1014.08 1014.26 1014.48 1014.73 1014.98 1015.23 1015.45 1015.63 1015.77 1015.88 1015.95 1015.98 1016.00 1016.00 1015.99 1015.98 1015.97 1015.97
1015.68 1015.45 1015.27 1015.13 1015.02 1014.94 1014.86 1014.79 1014.74 1014.70 1014.66 1014.64 1014.63 1014.62 1014.60 1014.56 1014.50 1014.42 1014.31 1014.19 1014.07 1013.97 1013.90 1013.88 1013.92 1014.02 1014.17 1014.38 1014.62 1014.88 1015.14 1015.39 1015.61 1015.79 1015.93 1016.02 1016.08 1016.11 1016.11 1016.09 1016.06 1016.03 1016.00
1016.24 1016.02 1015.82 1015.66 1015.51 1015.39 1015.27 1015.17 1015.09 1015.01 1014.95 1014.91 1014.87 1014.83 1014.78 1014.72 1014.64 1014.54 1014.42 1014.29 1014.16 1014.05 1013.97 1013.94 1013.96 1014.04 1014.18 1014.38 1014.61 1014.86 1015.12 1015.36 1015.59 1015.78 1015.94 1016.05 1016.13 1016.17 1016.18 1016.17 1016.14 1016.11 1016.07
1016.86 1016.64 1016.43 1016.24 1016.07 1015.91 1015.76 1015.63 1015.52 1015.43 1015.35 1015.28 1015.22 1015.16 1015.08 1014.99 1014.88 1014.74 1014.59 1014.44 1014.29 1014.17 1014.08 1014.03 1014.05 1014.12 1014.25 1014.42 1014.63 1014.87 1015.10 1015.34 1015.55 1015.74 1015.89 1016.02 1016.10 1016.16 1016.20 1016.21 1016.21 1016.19 1016.16
1017.49 1017.28 1017.07 1016.87 1016.68 1016.49 1016.33 1016.18 1016.06 1015.95 1015.87 1015.79 1015.71 1015.62 1015.51 1015.37 1015.21 1015.03 1014.84 1014.65 1014.47 1014.32 1014.21 1014.15 1014.15 1014.21 1014.32 1014.48 1014.67 1014.87 1015.09 1015.29 1015.48 1015.65 1015.80 1015.93 1016.03 1016.11 1016.17 1016.22 1016.25 1016.27 1016.27
1018.10 1017.91 1017.72 1017.52 1017.32 1017.14 1016.97 1016.82 1016.70 1016.60 1016.51 1016.42 1016.32 1016.20 1016.05 1015.86 1015.65 1015.41 1015.16 1014.91 1014.69 1014.50 1014.36 1014.28 1014.26 1014.30 1014.40 1014.53 1014.69 1014.87 1015.06 1015.24 1015.40 1015.56 1015.70 1015.82 1015.94 1016.05 1016.14 1016.23 1016.30 1016.36 1016.40
1018.63 1018.49 1018.33 1018.15 1017.98 1017.81 1017.66 1017.53 1017.42 1017.32 1017.24 1017.14 1017.02 1016.87 1016.67 1016.43 1016.15 1015.85 1015.53 1015.22 1014.94 1014.71 1014.53 1014.42 1014.38 1014.40 1014.48 1014.59 1014.73 1014.89 1015.05 1015.21 1015.36 1015.50 1015.64 1015.77 1015.90 1016.03 1016.16 1016.28 1016.40 1016.49 1016.56
1019.07 1018.99 1018.88 1018.74 1018.61 1018.47 1018.35 1018.25 1018.16 1018.08 1018.00 1017.90 1017.76 1017.57 1017.33 1017.03 1016.69 1016.32 1015.94 1015.57 1015.24 1014.96 1014.74 1014.61 1014.54 1014.54 1014.60 1014.70 1014.82 1014.96 1015.11 1015.26 1015.40 1015.54 1015.68 1015.82 1015.96 1016.12 1016.27 1016.42 1016.56 1016.68 1016.77
1019.42 1019.40 1019.34 1019.27 1019.18 1019.09 1019.01 1018.94 1018.88 1018.82 1018.74 1018.63 1018.47 1018.25 1017.97 1017.62 1017.23 1016.80 1016.37 1015.95 1015.58 1015.26 1015.02 1014.86 1014.77 1014.76 1014.80 1014.89 1015.01 1015.14 1015.28 1015.43 1015.57 1015.71 1015.86 1016.01 1016.17 1016.33 1016.50 1016.66 1016.81 1016.93 1017.03
1019.68 1019.72 1019.73 1019.71 1019.68 1019.64 1019.60 1019.57 1019.53 1019.48 1019.40 1019.28 1019.10 1018.86 1018.54 1018.17 1017.74 1017.28 1016.82 1016.38 1015.98 1015.65 1015.40 1015.22 1015.13 1015.10 1015.14 1015.22 1015.33 1015.46 1015.60 1015.75 1015.90 1016.05 1016.20 1016.36 1016.52 1016.69 1016.85 1017.00 1017.14 1017.26 1017.34
1019.88 1019.97 1020.03 1020.07 1020.10 1020.10 1020.10 1020.10 1020.08 1020.03 1019.95 1019.82 1019.63 1019.37 1019.04 1018.65 1018.21 1017.75 1017.29 1016.86 1016.47 1016.15 1015.90 1015.73 1015.64 1015.61 1015.64 1015.71 1015.82 1015.94 1016.08 1016.23 1016.38 1016.54 1016.70 1016.85 1017.01 1017.16 1017.30 1017.43 1017.54 1017.63 1017.70
1020.03 1020.16 1020.27 1020.35 1020.42 1020.47 1020.50 1020.52 1020.51 1020.47 1020.38 1020.24 1020.04 1019.78 1019.45 1019.07 1018.65 1018.22 1017.80 1017.40 1017.06 1016.77 1016.55 1016.40 1016.31 1016.29 1016.31 1016.38 1016.47 1016.58 1016.71 1016.85 1017.00 1017.14 1017.30 1017.44 1017.58 1017.71 1017.83 1017.92 1018.00 1018.05 1018.09
1020.15 1020.30 1020.43 1020.55 1020.65 1020.73 1020.79 1020.82 1020.82 1020.77 1020.69 1020.55 1020.35 1020.09 1019.78 1019.44 1019.07 1018.70 1018.34 1018.02 1017.73 1017.50 1017.33 1017.21 1017.15 1017.13 1017.14 1017.19 1017.26 1017.35 1017.46 1017.57 1017.70 1017.83 1017.96 1018.08 1018.20 1018.30 1018.38 1018.44 1018.48 1018.50 1018.50
1020.23 1020.38 1020.53 1020.66 1020.78 1020.88 1020.95 1021.00 1021.00 1020.97 1020.88 1020.75 1020.56 1020.33 1020.07 1019.78 1019.49 1019.19 1018.92 1018.69 1018.49 1018.33 1018.21 1018.14 1018.09 1018.08 1018.08 1018.10 1018.14 1018.19 1018.26 1018.34 1018.43 1018.53 1018.63 1018.73 1018.82 1018.89 1018.94 1018.96 1018.97 1018.95 1018.94
1020.26 1020.39 1020.53 1020.68 1020.81 1020.93 1021.02 1021.07 1021.09 1021.07 1021.00 1020.88 1020.72 1020.54 1020.33 1020.11 1019.90 1019.70 1019.53 1019.39 1019.28 1019.20 1019.14 1019.11 1019.09 1019.07 1019.06 1019.05 1019.05 1019.06 1019.07 1019.11 1019.15 1019.21 1019.28 1019.34 1019.40 1019.45 1019.47 1019.47 1019.45 1019.42 1019.39
1020.20 1020.31 1020.45 1020.59 1020.74 1020.87 1020.98 1021.05 1021.09 1021.09 1021.04 1020.96 1020.84 1020.70 1020.56 1020.42 1020.30 1020.20 1020.12 1020.08 1020.06 1020.05 1020.06 1020.06 1020.06 1020.04 1020.01 1019.97 1019.92 1019.88 1019.84 1019.82 1019.82 1019.84 1019.87 1019.91 1019.94 1019.96 1019.97 1019.96 1019.94 1019.90 1019.87
1020.06 1020.15 1020.27 1020.41 1020.57 1020.71 1020.85 1020.95 1021.02 1021.04 1021.03 1020.99 1020.92 1020.85 1020.77 1020.71 1020.67 1020.66 1020.67 1020.71 1020.77 1020.82 1020.88 1020.91 1020.92 1020.90 1020.85 1020.78 1020.69 1020.60 1020.52 1020.46 1020.41 1020.39 1020.39 1020.40 1020.42 1020.44 1020.44 1020.43 1020.41 1020.38 1020.35
1019.85 1019.91 1020.02 1020.16 1020.32 1020.48 1020.64 1020.77 1020.87 1020.94 1020.97 1020.98 1020.96 1020.95 1020.94 1020.94 1020.98 1021.04 1021.13 1021.23 1021.35 1021.45 1021.54 1021.60 1021.61 1021.59 1021.53 1021.43 1021.31 1021.19 1021.07 1020.97 1020.90 1020.85 1020.83 1020.83 1020.84 1020.86 1020.87 1020.87 1020.86 1020.85 1020.83
1019.60 1019.64 1019.73 1019.86 1020.03 1020.20 1020.38 1020.54 1020.67 1020.78 1020.86 1020.91 1020.95 1020.99 1021.04 1021.10 1021.20 1021.31 1021.45 1021.60 1021.76 1021.89 1022.00 1022.07 1022.10 1022.07 1022.00 1021.89 1021.76 1021.62 1021.49 1021.37 1021.27 1021.21 1021.18 1021.18 1021.19 1021.22 1021.24 1021.26 1021.27 1021.28 1021.27
1019.36 1019.37 1019.44 1019.56 1019.72 1019.90 1020.08 1020.26 1020.43 1020.57 1020.68 1020.78 1020.87 1020.95 1021.05 1021.16 1021.29 1021.45 1021.62 1021.80 1021.97 1022.13 1022.25 1022.33 1022.36 1022.34 1022.27 1022.16 1022.03 1021.89 1021.75 1021.63 1021.54 1021.47 1021.44 1021.44 1021.47 1021.50 1021.55 1021.59 1021.62 1021.64 1021.66
1019.16 1019.14 1019.18 1019.28 1019.42 1019.59 1019.77 1019.96 1020.13 1020.29 1020.44 1020.57 1020.69 1020.82 1020.95 1021.09 1021.25 1021.43 1021.62 1021.81 1022.00 1022.16 1022.29 1022.38 1022.41 1022.40 1022.35 1022.25 1022.14 1022.01 1021.88 1021.77 1021.69 1021.64 1021.62 1021.62 1021.66 1021.71 1021.77 1021.83 1021.88 1021.93 1021.96
1019.03 1018.97 1018.98 1019.04 1019.14 1019.28 1019.44 1019.62 1019.79 1019.96 1020.11 1020.27 1020.42 1020.57 1020.72 1020.89 1021.07 1021.27 1021.47 1021.67 1021.86 1022.02 1022.16 1022.25 1022.30 1022.31 1022.27 1022.21 1022.12 1022.01 1021.91 1021.83 1021.76 1021.72 1021.71 1021.74 1021.78 1021.84 1021.91 1021.98 1022.05 1022.12 1022.17
1018.94 1018.85 1018.81 1018.82 1018.88 1018.97 1019.10 1019.24 1019.39 1019.55 1019.71 1019.87 1020.03 1020.20 1020.38 1020.57 1020.77 1020.98 1021.19 1021.40 1021.59 1021.76 1021.91 1022.02 1022.09 1022.12 1022.11 1022.07 1022.02 1021.95 1021.88 1021.82 1021.78 1021.76 1021.76 1021.79 1021.84 1021.90 1021.98 1022.06 1022.15 1022.23 1022.30
1018.85 1018.73 1018.64 1018.60 1018.60 1018.65 1018.72 1018.82 1018.94 1019.07 1019.22 1019.38 1019.55 1019.73 1019.93 1020.14 1020.35 1020.58 1020.80 1021.03 1021.23 1021.42 1021.58 1021.72 1021.81 1021.87 1021.90 1021.91 1021.89 1021.86 1021.82 1021.79 1021.78 1021.77 1021.78 1021.82 1021.87 1021.93 1022.01 1022.10 1022.18 1022.27 1022.36
Thickness
5671 5674 5677 5678 5680 5681 5682 5682 5681 5681 5680 5679 5679 5679 5679 5679 5679 5679 5679 5679 5678 5679 5680 5680 5680 5682 5682 5683 5683 5683 5682 5680 5677 5679 5683 5686 5687 5687 5687 5686 5684 5682 5680
5663 5666 5669 5670 5672 5673 5673 5674 5674 5673 5673 5673 5672 5672 5672 5672 5672 5671 5670 5672 5672 5672 5674 5674 5675 5676 5676 5676 5677 5677 5677 5676 5674 5673 5676 5678 5680 5681 5681 5680 5679 5678 5677
5658 5660 5662 5664 5665 5666 5667 5668 5668 5668 5668 5668 5667 5666 5665 5665 5665 5665 5665 5666 5666 5668 5669 5670 5671 5671 5670 5671 5672 5671 5672 5672 5670 5668 5669 5672 5673 5674 5674 5674 5674 5673 5673
5654 5656 5657 5658 5659 5661 5662 5662 5663 5663 5662 5662 5661 5660 5660 5659 5660 5660 5661 5661 5662 5663 5665 5666 5666 5666 5666 5666 5666 5666 5666 5665 5664 5663 5663 5664 5665 5667 5667 5666 5666 5667 5667
5650 5651 5652 5654 5655 5656 5656 5656 5656 5656 5656 5655 5655 5655 5655 5655 5655 5655 5656 5657 5656 5657 5659 5660 5661 5662 5662 5662 5662 5660 5659 5658 5657 5657 5656 5656 5657 5659 5659 5660 5659 5661 5661
5646 5647 5648 5650 5650 5650 5650 5650 5650 5649 5648 5648 5647 5647 5648 5649 5649 5650 5651 5651 5651 5651 5651 5653 5655 5655 5656 5656 5656 5656 5655 5653 5651 5650 5650 5650 5651 5653 5654 5654 5654 5654 5653
5644 5644 5645 5645 5645 5644 5645 5644 5643 5642 5641 5640 5639 5639 5639 5640 5642 5644 5644 5644 5644 5643 5644 5645 5647 5648 5648 5647 5648 5649 5649 5649 5649 5647 5645 5645 5647 5648 5649 5649 5648 5648 5648
5641 5641 5641 5641 5640 5640 5639 5638 5637 5636 5634 5633 5632 5631 5631 5632 5634 5635 5636 5636 5635 5635 5635 5636 5637 5638 5640 5640 5640 5640 5640 5641 5643 5643 5642 5642 5643 5644 5644 5644 5644 5643 5642
5640 5639 5638 5638 5637 5636 5635 5633 5632 5630 5628 5627 5625 5624 5623 5623 5625 5626 5627 5625 5625 5625 5626 5627 5628 5630 5633 5634 5634 5633 5634 5635 5637 5638 5637 5637 5638 5639 5639 5638 5637 5636 5634
5640 5639 5638 5637 5635 5633 5631 5630 5628 5626 5624 5622 5619 5617 5615 5614 5616 5618 5618 5616 5615 5615 5616 5618 5620 5622 5625 5627 5627 5628 5627 5628 5630 5630 5631 5631 5632 5633 5633 5633 5632 5630 5628
5643 5641 5638 5636 5634 5631 5629 5627 5625 5623 5620 5617 5614 5611 5610 5608 5609 5610 5610 5608 5607 5607 5608 5609 5612 5615 5618 5620 5622 5623 5623 5624 5623 5624 5623 5624 5625 5626 5627 5627 5627 5626 5624
5645 5641 5638 5636 5634 5631 5628 5624 5622 5619 5616 5612 5609 5607 5605 5604 5603 5603 5604 5604 5603 5602 5602 5603 5605 5608 5611 5613 5615 5618 5619 5619 5618 5617 5616 5617 5618 5619 5620 5621 5621 5621 5621
5646 5642 5639 5636 5632 5629 5626 5622 5619 5616 5613 5609 5606 5602 5600 5599 5599 5600 5600 5600 5600 5599 5598 5600 5601 5603 5605 5606 5608 5611 5612 5612 5611 5610 5610 5610 5612 5613 5615 5615 5615 5615 5615
5648 5644 5640 5636 5632 5628 5625 5621 5618 5614 5610 5607 5604 5600 5598 5597 5597 5597 5596 5596 5597 5596 5595 5596 5596 5597 5598 5600 5602 5603 5604 5605 5605 5605 5605 5606 5607 5607 5607 5608 5607 5607 5606
5650 5646 5641 5637 5633 5628 5624 5620 5617 5613 5610 5606 5602 5599 5597 5596 5595 5596 5595 5595 5594 5594 5593 5593 5592 5592 5592 5593 5594 5596 5597 5599 5599 5599 5600 5600 5600 5600 5600 5601 5600 5600 5598
5652 5647 5643 5639 5634 5629 5625 5621 5618 5615 5612 5609 5606 5602 5599 5598 5597 5596 5596 5595 5594 5594 5593 5590 5588 5587 5587 5587 5588 5590 5591 5592 5593 5594 5595 5595 5595 5594 5594 5594 5594 5592 5590
5655 5651 5646 5642 5637 5632 5628 5624 5620 5617 5615 5611 5608 5605 5603 5601 5599 5597 5596 5595 5594 5593 5591 5587 5585 5584 5584 5584 5585 5586 5586 5587 5589 5590 5590 5590 5590 5590 5590 5589 5588 5587 5585
5658 5655 5650 5646 5642 5637 5633 5628 5624 5620 5616 5613 5610 5608 5605 5603 5601 5599 5597 5596 5592 5590 5588 5586 5585 5584 5584 5584 5584 5584 5585 5586 5587 5587 5587 5587 5587 5587 5586 5585 5585 5584 5582
5660 5656 5653 5650 5646 5642 5638 5633 5629 5624 5620 5616 5612 5610 5608 5606 5603 5600 5599 5595 5592 5589 5588 5586 5586 5585 5585 5585 5585 5585 5585 5585 5586 5586 5586 5586 5586 5586 5585 5584 5583 5583 5581
5662 5660 5657 5653 5649 5645 5641 5636 5631 5627 5623 5619 5616 5613 5611 5608 5604 5601 5599 5597 5594 5591 5590 5588 5588 5588 5587 5587 5587 5586 5586 5586 5586 5586 5586 5586 5586 5586 5584 5584 5582 5581 5579
5664 5662 5661 5656 5652 5649 5645 5640 5636 5631 5627 5623 5620 5618 5616 5611 5608 5605 5602 5600 5598 5595 5594 5592 5591 5590 5590 5590 5589 5589 5588 5587 5587 5587 5587 5587 5587 5586 5584 5583 5582 5580 5579
5666 5664 5661 5658 5655 5652 5649 5645 5640 5636 5632 5628 5625 5622 5621 5616 5612 5609 5607 5605 5602 5601 5599 5597 5595 5594 5593 5593 5592 5591 5590 5589 5589 5589 5588 5588 5587 5586 5585 5583 5581 5580 5578
5667 5666 5664 5661 5659 5656 5653 5649 5645 5641 5637 5634 5630 5627 5624 5621 5618 5615 5612 5610 5608 5606 5604 5602 5600 5598 5597 5596 5595 5594 5593 5592 5591 5591 5590 5589 5588 5587 5585 5583 5582 5579 5577
5668 5667 5666 5664 5661 5658 5655 5653 5650 5646 5643 5639 5636 5632 5629 5626 5623 5621 5618 5615 5613 5611 5609 5607 5605 5603 5601 5600 5599 5597 5596 5596 5595 5594 5593 5591 5590 5588 5585 5583 5581 5579 5576
5668 5668 5667 5666 5664 5661 5659 5657 5654 5651 5648 5645 5642 5638 5635 5632 5628 5626 5623 5620 5618 5615 5613 5611 5609 5607 5605 5604 5602 5601 5600 5599 5599 5598 5596 5594 5591 5589 5586 5584 5581 5579 5576
5667 5668 5668 5667 5665 5664 5662 5660 5658 5655 5652 5650 5647 5643 5640 5637 5633 5630 5627 5624 5622 5620 5617 5615 5613 5611 5609 5607 5605 5604 5603 5602 5601 5600 5598 5595 5592 5590 5587 5583 5581 5577 5575